Location: Asheville, NC
(35.6000°N, 82.5500°W)
Time: 13:56:30
(UTC-04:00)

ITAMSAT 1 - Pass Details

Date: 09 March 2018
Orbit: 784 x 796 km, 98.9° (Epoch: 18 June)

Event Time Altitude Azimuth Distance (km) Brightness Sun altitude
Rises 03:51:30 0° 23° (NNE) 3,302 11.5 -36.2°
Reaches altitude 10° 03:54:02 10° 32° (NNE) 2,367 10.7 -35.8°
Enters shadow 03:58:21 35° 86° (E) 1,256 9.0 -34.9°
